Weather in Kozhym

Russia / Komi Republic     65°44′06″N   59°31′24″E
temp.,
°C
wind,
m/s
gust,
m/s
humid.,
%
clouds,
%
prec.,
mm/h
press.,
hPa
HPBL,
m
16 april, fri
fri1600:00−9w128629 0.0 1027152
03:00−9sw47845 0.0 1027313
06:00−9ssw71180100 0.0 1027408
09:00−4sw91387100 0.1 1025853
12:00−1wnw7107790 1.5 10231356
15:000wnw71272100 2.2 10231614
18:00−4nnw4780100 0.3 1024229
21:00−8ene1191100 0.3 102410
17 april, sat
sat1700:00−7ese1186100 0.0 102274
03:00−5ssw1395100 0.3 1019193
06:00−4nw41090100 1.9 1018832
09:00−2wnw6884100 2.6 1016973
12:00−2nnw359291 1.9 1015510
15:00−3ne898998 2.8 1016601
18:00−8nne8118237 0.5 1021594
21:00−12ne610824 0.5 1027337
18 april, sun
sun1800:00−13ne47847 0.0 1031245
03:00−14ne34855 0.0 1033148
06:00−12nne23745 0.0 1036277
09:00−10nnw22551 0.0 1037543
12:00−6nw23455 0.0 10371150
15:00−4nw244889 0.0 10371419
18:00−6n357331 0.0 1038269
21:00−9n12895 0.0 103884
19 april, mon
mon1900:00−10ssw22905 0.0 103851
03:00−9ssw468797 0.0 1038191
06:00−7sw697679 0.0 1037387
09:00−3sw9126595 0.0 1035714
12:000sw101459100 0.0 10321034
15:00+2wsw91358100 0.0 10301072
18:00+2wsw71364100 0.0 1029569
21:00+1wsw71278100 0.2 1028458
20 april, tue
tue2000:00+1sw7128188 0.0 1027400
03:00+1sw7128367 0.0 1027438
06:00+1sw7128478 0.0 1027632
09:00+3wsw71183100 0.0 1027875
12:00+5wsw797598 0.0 10281022
15:00+6wsw687586 0.0 1028908
18:00+3sw458934 0.0 102980
21:00+1sw339372 0.0 103038